Simultaneous Nadir Overpasses (SNOs) Predictions

Prediction of SNOs between METOP-A and NPP Satellite Orbit:

Table of predicted SNOs for the next 14.0 days since TLE Epoch: 6/30/2020
Index Date (METOP-A) Time (METOP-A) Lat,Lon (METOP-A) SZA (METOP-A ) Date (NPP) Time (NPP) Lat,Lon (NPP) SZA (NPP ) Distance(km) Time Diff (sec)
1 07/14/2020 17:15:56 -76.18, 87.83 124.92 07/14/2020 17:14:51 -76.19, 84.07 124.59 99.83 65
2 07/14/2020 18:06:40 75.98,-105.47 54.95 07/14/2020 18:05:32 75.98,-107.88 55.16 64.99 68
3 07/14/2020 18:57:25 -75.83, 61.36 125.16 07/14/2020 18:56:13 -75.83, 59.94 125.02 38.72 72
4 07/14/2020 19:48:08 75.63,-131.92 54.71 07/14/2020 19:46:54 75.66,-132.20 54.78 8.08 74
5 07/14/2020 20:38:50 -75.62, 35.37 125.30 07/14/2020 20:37:37 -75.60, 35.30 125.29 3.22 73
